Retour au catalogue

METEOR 2-5 DEB

LostPO
NORAD 38535·DEBRIS·🇷🇺 Russia

Lancé Oct 31, 1979 depuis Plesetsk Cosmodrome

Loading…

Prochains Passages (prochaines 24 heures)

TLE

PériméSource: Space-Track

Époque: Sep 7, 2022, 15:57 UTC

1 38535U 79095CC  22250.66494828  .00006114  00000-0  22516-2 0  9992
2 38535  81.2010  21.7087 0019033 216.6878 143.3003 14.32400904714954

Suivez METEOR 2-5 DEB en temps réel avec AllMySat

Download on the App Store